Hourly Data Report for October 04, 2017

All times are specified in Local Standard Time (LST). Add 1 hour to adjust for Daylight Saving Time where and when it is observed.

PRINCE RUPERT
BRITISH COLUMBIA

54°17'10.000" N
130°26'41.000" W
35.40 m
1066482
71022
YPR

Download Data

Hourly Data (October 2017)
Hourly Data Report for October 4, 2017
Temp Definition
°C
Dew Point Temp Definition
°C
Rel Hum Definition
%
Wind Dir Definition
10's deg

Wind Spd Definition
km/h
Visibility Definition
km
Stn Press Definition
kPa
Hmdx Definition


Wind Chill Definition


Weather Definition


TIME
00:00 Legend Double Dagger 8.0 6.0 87 7 17 16.1 102.02     LegendNANA
01:00 Legend Double Dagger 5.7 4.5 92 5 5 16.1 102.05     LegendNANA
02:00 Legend Double Dagger 5.5 4.9 96 7 8 16.1 102.03     LegendNANA
03:00 Legend Double Dagger 4.4 3.5 94 6 11 16.1 102.00     LegendNANA
04:00 Legend Double Dagger 5.2 3.9 92 7 9 16.1 101.98     LegendNANA
05:00 Legend Double Dagger 5.4 4.2 92 LegendMM 4 16.1 101.96     LegendNANA
06:00 Legend Double Dagger 5.6 4.3 91 7 15 16.1 101.91     LegendNANA
07:00 Legend Double Dagger 3.2 2.8 97 5 5 16.1 101.92     LegendNANA
08:00 Legend Double Dagger 4.7 4.1 96 4 5 16.1 101.92     LegendNANA
09:00 Legend Double Dagger 8.6 6.0 84 8 5 16.1 101.92     LegendNANA
10:00 Legend Double Dagger 10.9 6.4 74 LegendMM 4 16.1 101.92     LegendNANA
11:00 Legend Double Dagger 12.3 7.3 71 LegendMM 4 16.1 101.89     LegendNANA
12:00 Legend Double Dagger 12.7 8.2 74 30 5 16.1 101.89     LegendNANA
13:00 Legend Double Dagger 13.8 7.3 65 27 8 16.1 101.84     LegendNANA
14:00 Legend Double Dagger 13.7 6.9 63 32 8 16.1 101.84     LegendNANA
15:00 Legend Double Dagger 14.4 2.3 44 31 5 16.1 101.82     LegendNANA
16:00 Legend Double Dagger 15.0 2.5 43 30 9 16.1 101.75     LegendNANA
17:00 Legend Double Dagger 12.1 6.6 69 31 8 16.1 101.77     LegendNANA
18:00 Legend Double Dagger 10.4 6.2 75 LegendMM 4 16.1 101.74     LegendNANA
19:00 Legend Double Dagger 8.8 6.6 86 33 5 16.1 101.75     LegendNANA
20:00 Legend Double Dagger 7.3 6.3 93 6 8 16.1 101.73     LegendNANA
21:00 Legend Double Dagger 7.1 6.0 93 10 5 16.1 101.71     LegendNANA
22:00 Legend Double Dagger 5.1 4.3 95 11 4 16.1 101.72     LegendNANA
23:00 Legend Double Dagger 4.6 4.2 97 5 5 16.1 101.76     LegendNANA

Notes on Data Quality.

Legend

  • E = Estimated
  • M = Missing
  • NA = Not Available
  • ‡ = Partner data that is not subject to review by the National Climate Archives
Date modified: